Location: Ch�teau-Arnoux
(44.0814°N, 6.0027°E)
Time: 03:30:21
(UTC+00:00)

Cosmos 2123 Rocket - Pass Details

Date: 15 November 2019
Orbit: 961 x 992 km, 82.9° (Epoch: 14 December)

Event Time Altitude Azimuth Distance (km) Brightness Sun altitude
Rises 04:10:56 0° 346° (NNW) 3,657 6.9 -25.0°
Enters shadow 04:11:23 - 346° (NNW) 3,492 6.7 -25.0°
Exits shadow 04:20:16 45° 245° (WSW) 1,298 4.2 -23.4°
Drops below altitude 10° 04:25:17 10° 198° (SSW) 2,703 6.2 -22.5°
Sets 04:27:52 0° 192° (SSW) 3,650 6.9 -22.0°
